FW2027 Weather Reports


Display with metric or nautical units.
time (UTC)temp
F
wind
direction
speed
MPH
gust
MPH
rain 1hr
in
rain 24hr
in
rain mn
in
humidity
%
barometer
mb
20260901013032 51 153 0.0 0.0 0.00 0.01 0.00 94 1017.5
20260901011529 52 153 0.0 0.0 0.00 0.01 0.00 95 1017.4
20260901010035 52 153 0.0 0.0 0.00 0.01 0.00 94 1017.3
20260901004526 51 153 0.0 0.0 0.00 0.01 0.00 94 1017.3
20260901003025 52 153 0.0 0.0 0.00 0.01 0.00 93 1017.4
20260901001525 52 153 0.0 0.0 0.00 0.01 0.00 93 1017.4
20260901000023 53 153 0.0 0.0 0.00 0.01 0.00 92 1017.5
20260831234520 53 153 0.0 1.0 0.00 0.04 0.00 92 1017.4
20260831233018 53 126 0.0 2.0 0.00 0.04 0.00 92 1017.4
20260831231517 54 130 0.0 0.0 0.00 0.04 0.00 91 1017.5
20260831230015 54 130 0.0 1.0 0.00 0.04 0.00 91 1017.2
20260831224513 54 130 1.0 2.0 0.00 0.35 0.04 90 1017.2
20260831223019 55 133 0.0 3.0 0.00 0.35 0.04 90 1017.2
20260831221523 55 134 0.0 3.0 0.00 0.35 0.04 89 1017.2
20260831220011 55 223 0.0 0.0 0.00 0.35 0.04 88 1017.2
20260831214510 56 226 0.0 0.0 0.00 0.35 0.04 86 1017.1
20260831213009 56 226 0.0 1.0 0.00 0.35 0.04 86 1017.0
20260831211510 57 257 0.0 2.0 0.00 0.35 0.04 85 1016.8
20260831210008 57 293 0.0 1.0 0.00 0.35 0.04 86 1016.9
20260831204507 57 311 0.0 4.0 0.00 0.35 0.04 86 1016.7
20260831203004 57 257 0.0 2.0 0.00 0.35 0.04 85 1016.6
20260831201504 57 257 0.0 1.0 0.00 0.35 0.04 85 1016.5
20260831200002 58 256 0.0 1.0 0.00 0.41 0.04 84 1016.4
20260831194505 58 255 0.0 3.0 0.00 0.41 0.04 84 1016.3
20260831193101 59 261 0.0 2.0 0.00 0.41 0.04 83 1016.1
20260831191559 59 263 1.0 6.0 0.00 0.41 0.04 82 1016.0
20260831190107 60 242 1.0 4.0 0.00 0.41 0.04 82 1015.8
20260831184610 60 268 1.0 3.0 0.00 0.46 0.04 81 1015.8
20260831183055 61 276 2.0 5.0 0.00 0.46 0.04 80 1015.4
20260831181554 61 277 2.0 8.0 0.00 0.46 0.04 80 1015.4
20260831180053 61 300 2.0 5.0 0.00 0.46 0.04 79 1015.4
20260831174600 62 300 3.0 9.0 0.00 0.59 0.04 78 1015.3
20260831173050 62 317 3.0 10.0 0.00 0.59 0.04 77 1015.1
20260831171550 63 317 2.0 9.0 0.00 0.59 0.04 76 1014.9
20260831170126 63 319 5.0 12.0 0.00 0.59 0.04 76 1014.6
20260831164547 63 277 2.0 12.0 0.00 0.60 0.04 77 1014.4
20260831163046 63 259 5.0 12.0 0.00 0.60 0.04 77 1014.5
20260831161546 64 304 4.0 14.0 0.00 0.60 0.04 76 1014.4
20260831160044 64 315 5.0 12.0 0.00 0.60 0.04 77 1014.3
20260831154549 65 272 7.0 12.0 0.00 0.91 0.04 75 1013.9
20260831153041 65 286 5.0 16.0 0.00 0.91 0.04 74 1013.7
20260831151540 65 263 6.0 12.0 0.00 0.91 0.04 74 1013.6
20260831150039 66 280 5.0 14.0 0.00 0.91 0.04 75 1013.4
20260831144538 66 307 4.0 13.0 0.00 0.92 0.04 73 1013.3
20260831143036 67 301 5.0 13.0 0.00 0.92 0.04 72 1013.1
20260831141535 67 296 5.0 15.0 0.00 0.92 0.04 73 1012.7
20260831140035 67 268 6.0 13.0 0.00 0.92 0.04 73 1012.5
20260831134533 68 249 4.0 14.0 0.00 0.94 0.04 72 1012.5
20260831133030 69 255 7.0 13.0 0.00 0.94 0.04 71 1012.2
20260831131527 69 260 5.0 15.0 0.00 0.94 0.04 75 1012.0
20260831130026 68 280 7.0 14.0 0.00 0.94 0.04 74 1011.9
20260831124525 67 282 6.0 13.0 0.00 0.94 0.04 76 1011.7
20260831123023 68 275 5.0 15.0 0.00 0.94 0.04 74 1011.4
20260831121524 67 292 5.0 15.0 0.00 0.94 0.04 76 1011.2
20260831120028 67 309 6.0 15.0 0.00 0.94 0.04 75 1010.8
20260831114519 68 320 7.0 14.0 0.00 0.94 0.04 75 1010.5
20260831113016 68 269 7.0 14.0 0.00 0.94 0.04 77 1010.4
20260831111523 67 261 5.0 17.0 0.00 0.94 0.04 78 1010.0
20260831110009 67 336 4.0 13.0 0.00 0.94 0.04 79 1009.8
20260831104508 66 298 4.0 10.0 0.00 0.94 0.04 80 1009.7
20260831103005 66 275 5.0 15.0 0.00 0.94 0.04 80 1009.3
20260831101502 65 275 5.0 13.0 0.00 0.94 0.04 81 1009.5
20260831100058 64 307 4.0 11.0 0.00 0.94 0.04 84 1009.1
20260831094556 63 312 3.0 12.0 0.00 0.94 0.04 84 1008.9
20260831093056 63 293 5.0 11.0 0.00 0.94 0.04 87 1008.7
20260831091603 63 304 8.0 16.0 0.00 0.94 0.04 86 1008.4
20260831090058 62 259 4.0 11.0 0.01 0.94 0.04 88 1008.1
20260831084546 62 292 6.0 13.0 0.01 0.94 0.04 90 1008.2
20260831083038 61 297 5.0 13.0 0.01 0.94 0.04 93 1007.8
20260831081537 61 288 4.0 12.0 0.01 0.94 0.04 94 1007.5
20260831080048 60 292 4.0 11.0 0.00 0.93 0.03 97 1007.4
20260831074530 60 262 5.0 10.0 0.00 0.93 0.03 99 1007.1
20260831073032 59 254 1.0 8.0 0.00 0.93 0.03 99 1006.7
20260831071524 58 178 0.0 0.0 0.00 0.93 0.03 100 1006.5
20260831070021 56 161 0.0 0.0 0.00 0.93 0.03 99 1006.2
20260831064518 56 159 0.0 0.0 0.00 0.93 0.03 99 1005.9
20260831063020 55 157 0.0 0.0 0.00 0.93 0.03 99 1005.7
20260831061513 54 157 0.0 0.0 0.00 0.93 0.03 99 1005.5
20260831060009 53 189 0.0 0.0 0.00 0.93 0.03 99 1005.3
20260831054507 54 215 0.0 0.0 0.00 0.93 0.03 98 1005.0
20260831053008 54 215 0.0 0.0 0.00 0.93 0.03 98 1004.8
20260831051509 54 188 0.0 0.0 0.00 0.93 0.03 98 1004.6
20260831050002 54 184 0.0 0.0 0.00 0.93 0.03 99 1004.2
20260831044503 54 186 0.0 0.0 0.00 0.93 0.03 99 1004.1
20260831043101 54 183 0.0 0.0 0.00 0.93 0.03 99 1003.9
20260831041624 54 194 0.0 0.0 0.00 0.93 0.03 99 1003.9
20260831040059 53 194 0.0 0.0 0.00 0.93 0.03 98 1003.9
20260831034557 53 194 0.0 0.0 0.00 0.93 0.03 98 1003.8
20260831033057 53 194 0.0 3.0 0.00 0.93 0.03 98 1003.7
20260831031602 53 198 0.0 0.0 0.00 0.93 0.03 98 1003.5
20260831030104 53 198 0.0 0.0 0.00 0.93 0.03 98 1003.5
20260831024554 53 198 0.0 2.0 0.00 0.93 0.03 98 1003.3
20260831023048 54 198 2.0 5.0 0.00 0.93 0.03 98 1003.0
20260831021551 54 224 0.0 2.0 0.00 0.93 0.03 98 1003.0
20260831020044 54 190 0.0 0.0 0.00 0.93 0.03 98 1002.7
20260831014543 54 190 0.0 0.0 0.00 0.93 0.03 98 1002.7